Torna al catalogo

STARLINK-5694

AttivoComunicazioniVLEO
NORAD 55481·PAYLOAD·🇺🇸 United States

Lanciato Feb 2, 2023 da Cape Canaveral Space Force Station

Loading…

Prossimi Passaggi (prossime 24 ore)

TLE

AggiornatoSource: CelesTrak SupGP

Epoca: Sep 15, 2026, 03:01 UTC

1 55481C 23015AJ  26258.12618056  .00026591  00000+0  96321-3 0  2580
2 55481  43.0041 350.0337 0001959 280.0300 149.4867 15.27561959    15

Traccia STARLINK-5694 in tempo reale con AllMySat

Download on the App Store